Location: Lima
(44.6384°N, 112.5920°W)
Time: 03:47:35
(UTC+00:00)

DX 1 - Visible Passes

Search period start: 16 April 2024 00:00
Search period end: 26 April 2024 00:00
Orbit: 610 x 620 km, 98.3° (Epoch: 15 April)

Date Brightness Start Highest point End Pass type
(mag) Time Alt. Az. Time Alt. Az. Time Alt. Az.
16 Apr ? 07:24:20 10° NNE 07:25:39 19° NNE 07:25:39 19° NNE visible
16 Apr ? 09:02:35 10° NW 09:02:43 10° NW 09:02:43 10° NW visible
17 Apr ? 07:40:09 10° N 07:41:43 22° N 07:41:43 22° N visible
18 Apr ? 07:56:03 10° N 07:57:47 22° N 07:57:47 22° N visible
19 Apr ? 06:36:18 10° NE 06:36:46 12° NE 06:36:46 12° NE visible
19 Apr ? 08:12:02 10° N 08:13:50 21° NNW 08:13:50 21° NNW visible
20 Apr ? 06:51:45 10° NNE 06:52:49 16° NE 06:52:49 16° NE visible
20 Apr ? 08:28:07 10° NNW 08:29:53 18° NNW 08:29:53 18° NNW visible
21 Apr ? 07:07:20 10° NNE 07:08:51 21° NNE 07:08:51 21° NNE visible
21 Apr ? 08:44:22 10° NNW 08:45:55 15° NW 08:45:55 15° NW visible
22 Apr ? 07:23:02 10° NNE 07:24:53 25° NNE 07:24:53 25° NNE visible
22 Apr ? 09:01:00 10° NW 09:01:57 12° NW 09:01:57 12° NW visible
23 Apr ? 07:38:48 10° N 07:40:54 28° N 07:40:54 28° N visible
24 Apr ? 06:19:46 10° NE 06:19:51 10° NE 06:19:51 10° NE visible
24 Apr ? 07:54:38 10° N 07:56:55 28° NNW 07:56:55 28° NNW visible
25 Apr ? 06:34:56 10° NE 06:35:52 14° NE 06:35:52 14° NE visible
25 Apr ? 08:10:34 10° N 08:12:56 26° NNW 08:12:56 26° NNW visible
